EW0125 Weather Reports


time (UTC)temp
C
wind
direction
speed
KPH
gust
KPH
rain 1hr
cm
rain 24hr
cm
rain mn
cm
humidity
%
barometer
mb
20260506015553 21 186 1.6 9.7 0.00 0.00 0.00 54 1013.0
20260506015052 22 182 3.2 9.7 0.00 0.00 0.00 54 1013.0
20260506014556 22 212 1.6 9.7 0.00 0.00 0.00 54 1012.9
20260506014051 22 0 3.2 12.9 0.00 0.00 0.00 53 1012.8
20260506013553 22 199 0.0 12.9 0.00 0.00 0.00 53 1012.7
20260506013057 22 193 3.2 14.5 0.00 0.00 0.00 53 1012.7
20260506012551 22 196 3.2 14.5 0.00 0.00 0.00 52 1012.5
20260506012053 22 205 1.6 14.5 0.00 0.00 0.00 52 1012.6
20260506011600 22 219 3.2 14.5 0.00 0.00 0.00 52 1012.6
20260506011055 22 175 3.2 14.5 0.00 0.00 0.00 52 1012.5
20260506010552 22 192 3.2 11.3 0.00 0.00 0.00 51 1012.5
20260506010058 22 182 1.6 16.1 0.00 0.00 0.00 51 1012.4
20260506005551 22 192 1.6 16.1 0.00 0.00 0.00 51 1012.3
20260506005053 22 194 1.6 12.9 0.00 0.00 0.00 50 1012.3
20260506004556 23 192 4.8 14.5 0.00 0.00 0.00 50 1012.2
20260506004053 23 202 4.8 14.5 0.00 0.00 0.00 50 1012.2
20260506003554 23 0 3.2 11.3 0.00 0.00 0.00 49 1012.2
20260506003058 23 148 3.2 9.7 0.00 0.00 0.00 49 1012.2
20260506002553 23 199 1.6 17.7 0.00 0.00 0.00 48 1012.2
20260506002051 23 186 1.6 17.7 0.00 0.00 0.00 48 1012.1
20260506001607 23 158 1.6 8.0 0.00 0.00 0.00 47 1012.2
20260506001052 23 198 1.6 8.0 0.00 0.00 0.00 46 1012.1
20260506000555 24 190 1.6 8.0 0.00 0.00 0.00 46 1012.1
20260506000123 24 0 3.2 12.9 0.00 0.00 0.00 45 1012.1
20260505235552 24 190 1.6 12.9 0.00 0.00 0.00 45 1012.1
20260505235051 25 190 3.2 16.1 0.00 0.00 0.00 45 1012.1
20260505234610 25 0 3.2 16.1 0.00 0.00 0.00 44 1012.0
20260505234055 25 209 3.2 19.3 0.00 0.00 0.00 44 1011.9
20260505233553 25 201 4.8 19.3 0.00 0.00 0.00 44 1011.9
20260505233100 25 173 3.2 19.3 0.00 0.00 0.00 44 1012.0
20260505232553 25 156 4.8 16.1 0.00 0.00 0.00 44 1012.0
20260505232051 25 194 3.2 14.5 0.00 0.00 0.00 43 1011.9
20260505231601 25 169 4.8 16.1 0.00 0.00 0.00 43 1011.9
20260505231051 25 248 4.8 17.7 0.00 0.00 0.00 43 1012.0
20260505230553 25 244 6.4 17.7 0.00 0.00 0.00 43 1012.1
20260505230100 25 192 4.8 16.1 0.00 0.00 0.00 42 1011.9
20260505225554 25 194 3.2 16.1 0.00 0.00 0.00 42 1011.9
20260505225053 25 202 4.8 16.1 0.00 0.00 0.00 42 1012.0
20260505224601 26 198 3.2 16.1 0.00 0.00 0.00 41 1012.0
20260505224054 26 172 4.8 20.9 0.00 0.00 0.00 41 1011.9
20260505223551 26 196 3.2 20.9 0.00 0.00 0.00 41 1011.9
20260505223104 26 205 3.2 27.4 0.00 0.00 0.00 40 1012.0
20260505222556 26 202 6.4 27.4 0.00 0.00 0.00 40 1011.9
20260505222052 26 223 6.4 27.4 0.00 0.00 0.00 40 1011.8
20260505221601 27 188 3.2 25.7 0.00 0.00 0.00 39 1011.7
20260505221053 27 182 6.4 25.7 0.00 0.00 0.00 39 1011.7
20260505220555 27 169 3.2 24.1 0.00 0.00 0.00 40 1011.7
20260505220108 27 168 4.8 25.7 0.00 0.00 0.00 39 1011.5
20260505215555 27 181 8.0 25.7 0.00 0.00 0.00 39 1011.7
20260505215054 27 196 3.2 27.4 0.00 0.00 0.00 39 1011.5
20260505214605 27 197 6.4 30.6 0.00 0.00 0.00 39 1011.6
20260505214056 27 229 4.8 32.2 0.00 0.00 0.00 38 1011.5
20260505213555 27 192 8.0 32.2 0.00 0.00 0.00 38 1011.5
20260505213056 27 155 6.4 22.5 0.00 0.00 0.00 37 1011.6
20260505212553 27 219 3.2 19.3 0.00 0.00 0.00 37 1011.6
20260505212053 27 213 6.4 19.3 0.00 0.00 0.00 37 1011.8
20260505211634 27 195 4.8 29.0 0.00 0.00 0.00 36 1011.6
20260505211054 27 223 8.0 29.0 0.00 0.00 0.00 36 1011.8
20260505210554 27 196 6.4 24.1 0.00 0.00 0.00 35 1011.6
20260505210056 27 167 8.0 24.1 0.00 0.00 0.00 35 1011.6
20260505205554 28 224 8.0 24.1 0.00 0.00 0.00 35 1011.5
20260505205055 28 201 3.2 27.4 0.00 0.00 0.00 34 1011.5
20260505204603 28 226 8.0 27.4 0.00 0.00 0.00 34 1011.3
20260505204055 28 198 3.2 24.1 0.00 0.00 0.00 34 1011.3
20260505203554 28 198 9.7 24.1 0.00 0.00 0.00 34 1011.2
20260505203055 28 185 6.4 29.0 0.00 0.00 0.00 34 1011.3
20260505202554 28 196 4.8 29.0 0.00 0.00 0.00 33 1011.4
20260505202054 28 177 4.8 24.1 0.00 0.00 0.00 33 1011.5
20260505201555 28 191 4.8 24.1 0.00 0.00 0.00 32 1011.5
20260505201054 29 289 8.0 24.1 0.00 0.00 0.00 32 1011.6
20260505200554 29 190 6.4 25.7 0.00 0.00 0.00 32 1011.5
20260505200055 29 182 8.0 25.7 0.00 0.00 0.00 32 1011.7
20260505195555 29 250 6.4 27.4 0.00 0.00 0.00 31 1011.6
20260505195055 29 182 6.4 27.4 0.00 0.00 0.00 32 1011.8
20260505194557 29 184 6.4 19.3 0.00 0.00 0.00 32 1012.0
20260505194053 30 202 6.4 20.9 0.00 0.00 0.00 32 1011.8
20260505193554 30 171 9.7 30.6 0.00 0.00 0.00 33 1011.9
20260505193053 30 191 8.0 30.6 0.00 0.00 0.00 32 1011.9
20260505192554 30 209 6.4 17.7 0.00 0.00 0.00 32 1012.0
20260505192054 30 198 4.8 17.7 0.00 0.00 0.00 32 1012.2
20260505191600 30 183 6.4 17.7 0.00 0.00 0.00 32 1012.2
20260505191057 30 180 4.8 19.3 0.00 0.00 0.00 32 1012.4
20260505190556 30 188 6.4 33.8 0.00 0.00 0.00 32 1012.3
20260505190109 30 205 8.0 33.8 0.00 0.00 0.00 32 1012.6
20260505185554 30 296 4.8 19.3 0.00 0.00 0.00 33 1012.8
20260505185055 30 198 3.2 14.5 0.00 0.00 0.00 34 1012.8
20260505184554 29 155 4.8 16.1 0.00 0.00 0.00 34 1012.9
20260505184054 29 269 6.4 16.1 0.00 0.00 0.00 34 1012.9
20260505183554 29 148 3.2 17.7 0.00 0.00 0.00 34 1012.9
20260505183054 29 222 4.8 17.7 0.00 0.00 0.00 34 1013.0
20260505182553 29 167 6.4 17.7 0.00 0.00 0.00 35 1013.1
20260505182053 29 198 6.4 17.7 0.00 0.00 0.00 34 1013.2
20260505181638 29 176 6.4 17.7 0.00 0.00 0.00 35 1013.3
20260505181055 28 177 4.8 19.3 0.00 0.00 0.00 34 1013.4
20260505180553 28 160 8.0 20.9 0.00 0.00 0.00 34 1013.4
20260505180105 28 304 9.7 25.7 0.00 0.00 0.00 35 1013.6
20260505175553 28 157 8.0 25.7 0.00 0.00 0.00 34 1013.5
20260505175055 28 178 4.8 19.3 0.00 0.00 0.00 36 1013.6
20260505174556 28 182 6.4 19.3 0.00 0.00 0.00 37 1013.5
20260505174053 28 281 4.8 19.3 0.00 0.00 0.00 37 1013.6
20260505173552 28 290 1.6 14.5 0.00 0.00 0.00 38 1013.6
20260505173056 28 219 3.2 17.7 0.00 0.00 0.00 39 1013.5
20260505172552 28 250 6.4 17.7 0.00 0.00 0.00 38 1013.7
20260505172053 28 288 8.0 24.1 0.00 0.00 0.00 39 1013.7
20260505171603 27 180 4.8 25.7 0.00 0.00 0.00 39 1013.8
20260505171053 27 216 6.4 25.7 0.00 0.00 0.00 39 1013.7
20260505170553 27 190 4.8 17.7 0.00 0.00 0.00 41 1013.7
20260505170055 27 172 8.0 17.7 0.00 0.00 0.00 43 1013.6
20260505165552 27 193 3.2 16.1 0.00 0.00 0.00 44 1013.9
20260505165052 27 196 8.0 20.9 0.00 0.00 0.00 44 1014.0
20260505164555 27 226 3.2 20.9 0.00 0.00 0.00 45 1014.0
20260505164052 27 191 4.8 16.1 0.00 0.00 0.00 47 1014.1
20260505163555 27 182 1.6 17.7 0.00 0.00 0.00 47 1014.1
20260505163057 27 188 4.8 17.7 0.00 0.00 0.00 48 1014.1
20260505162553 26 165 6.4 14.5 0.00 0.00 0.00 47 1014.3
20260505162052 26 186 3.2 16.1 0.00 0.00 0.00 48 1014.5
20260505161555 26 186 4.8 17.7 0.00 0.00 0.00 49 1014.5
20260505161053 26 200 3.2 19.3 0.00 0.00 0.00 49 1014.6
20260505160553 26 163 4.8 19.3 0.00 0.00 0.00 50 1014.7
20260505153059 25 196 3.2 17.7 0.00 0.00 0.00 54 1014.9
20260505152552 25 143 6.4 17.7 0.00 0.00 0.00 54 1014.9
20260505152053 25 205 4.8 17.7 0.00 0.00 0.00 53 1015.0
20260505151559 25 194 4.8 12.9 0.00 0.00 0.00 54 1015.0
20260505151057 25 184 3.2 12.9 0.00 0.00 0.00 54 1014.9
20260505150552 25 163 3.2 14.5 0.00 0.00 0.00 56 1014.9
20260505140552 22 261 3.2 17.7 0.00 0.00 0.00 62 1015.0
20260505124554 18 198 1.6 14.5 0.00 0.00 0.00 70 1015.1
20260505124054 18 222 3.2 11.3 0.00 0.00 0.00 70 1015.0
20260505123552 18 254 1.6 11.3 0.00 0.00 0.00 71 1015.1
20260505123101 18 192 4.8 11.3 0.00 0.00 0.00 71 1015.0
20260505122552 17 185 1.6 11.3 0.00 0.00 0.00 72 1015.0
20260505122053 17 221 3.2 12.9 0.00 0.00 0.00 72 1014.9
20260505121555 17 188 4.8 12.9 0.00 0.00 0.00 73 1014.8
20260505121052 17 203 1.6 8.0 0.00 0.00 0.00 73 1014.9
20260505120554 17 257 1.6 9.7 0.00 0.00 0.00 74 1014.7
20260505120117 16 193 3.2 9.7 0.00 0.00 0.00 75 1014.5
20260505115551 16 0 1.6 9.7 0.00 0.00 0.00 75 1014.6
20260505115049 16 189 3.2 8.0 0.00 0.00 0.00 76 1014.6
20260505114555 16 180 3.2 9.7 0.00 0.00 0.00 77 1014.5
20260505114049 15 187 1.6 9.7 0.00 0.00 0.00 77 1014.5
20260505113555 15 187 1.6 9.7 0.00 0.00 0.00 77 1014.5
20260505113056 15 173 3.2 9.7 0.00 0.00 0.00 78 1014.5
20260505112552 15 163 0.0 9.7 0.00 0.00 0.00 79 1014.4
20260505112052 14 184 1.6 8.0 0.00 0.00 0.00 79 1014.4
20260505111557 14 190 1.6 4.8 0.00 0.00 0.00 80 1014.6
20260505111052 13 190 0.0 3.2 0.00 0.00 0.00 80 1014.5
20260505110555 13 0 0.0 3.2 0.00 0.00 0.00 80 1014.3
20260505110109 13 0 0.0 3.2 0.00 0.00 0.00 80 1014.4
20260505102050 12 0 0.0 1.6 0.00 0.00 0.00 77 1014.1
20260505101551 12 190 0.0 1.6 0.00 0.00 0.00 77 1014.0
20260505101053 12 0 0.0 1.6 0.00 0.00 0.00 77 1014.1
20260505100553 12 0 0.0 1.6 0.00 0.00 0.00 77 1014.0
20260505095553 13 0 0.0 1.6 0.00 0.00 0.00 76 1014.1
20260505095053 13 0 0.0 1.6 0.00 0.00 0.00 76 1014.0
20260505094557 13 0 0.0 3.2 0.00 0.00 0.00 76 1014.0
20260505094054 13 0 0.0 3.2 0.00 0.00 0.00 75 1014.0
20260505093552 13 190 0.0 1.6 0.00 0.00 0.00 75 1013.9
20260505093056 13 0 0.0 3.2 0.00 0.00 0.00 75 1013.9
20260505092553 13 0 0.0 3.2 0.00 0.00 0.00 75 1013.9
20260505092053 13 0 0.0 3.2 0.00 0.00 0.00 75 1013.9
20260505091600 13 0 0.0 1.6 0.00 0.00 0.00 75 1013.8
20260505091052 13 0 0.0 4.8 0.00 0.00 0.00 75 1013.8
20260505090553 14 0 0.0 4.8 0.00 0.00 0.00 74 1013.8
20260505090057 14 190 0.0 4.8 0.00 0.00 0.00 74 1013.8
20260505085553 14 0 0.0 3.2 0.00 0.00 0.00 74 1013.8
20260505085053 14 0 0.0 3.2 0.00 0.00 0.00 74 1013.8
20260505084604 14 0 0.0 3.2 0.00 0.00 0.00 74 1013.8
20260505084056 14 0 0.0 3.2 0.00 0.00 0.00 73 1013.7
20260505083552 15 190 0.0 3.2 0.00 0.00 0.00 73 1013.8
20260505083108 15 0 0.0 3.2 0.00 0.00 0.00 73 1013.7
20260505082556 15 0 0.0 4.8 0.00 0.00 0.00 72 1013.8
20260505082053 15 190 0.0 4.8 0.00 0.00 0.00 73 1013.8
20260505081600 15 0 0.0 6.4 0.00 0.00 0.00 72 1013.8
20260505081053 15 189 0.0 6.4 0.00 0.00 0.00 72 1013.8
20260505080553 15 0 0.0 4.8 0.00 0.00 0.00 72 1013.7
20260505080058 15 189 0.0 6.4 0.00 0.00 0.00 72 1013.9
20260505075553 15 190 1.6 6.4 0.00 0.00 0.00 72 1013.8
20260505075055 15 190 0.0 11.3 0.00 0.00 0.00 72 1013.6
20260505074555 15 190 1.6 11.3 0.00 0.00 0.00 72 1013.6
20260505074053 15 198 0.0 9.7 0.00 0.00 0.00 71 1013.6
20260505073552 15 0 0.0 9.7 0.00 0.00 0.00 71 1013.6
20260505073101 15 194 1.6 11.3 0.00 0.00 0.00 71 1013.5
20260505072552 15 0 0.0 11.3 0.00 0.00 0.00 71 1013.5
20260505072052 15 170 0.0 11.3 0.00 0.00 0.00 71 1013.4
20260505071556 15 0 3.2 11.3 0.00 0.00 0.00 71 1013.4
20260505071053 15 200 1.6 11.3 0.00 0.00 0.00 71 1013.4
20260505070553 15 202 3.2 11.3 0.00 0.00 0.00 70 1013.3
20260505070101 15 169 1.6 8.0 0.00 0.00 0.00 70 1013.4
20260505065553 15 0 1.6 8.0 0.00 0.00 0.00 70 1013.5
20260505065053 15 0 0.0 8.0 0.00 0.00 0.00 70 1013.4
20260505064637 15 188 1.6 9.7 0.00 0.00 0.00 69 1013.4
20260505064053 15 0 1.6 9.7 0.00 0.00 0.00 69 1013.3
20260505063553 15 192 0.0 9.7 0.00 0.00 0.00 68 1013.3
20260505063053 16 0 1.6 9.7 0.00 0.00 0.00 68 1013.2
20260505062552 16 183 1.6 9.7 0.00 0.00 0.00 68 1013.2
20260505062053 16 182 1.6 16.1 0.00 0.00 0.00 68 1013.3
20260505061557 16 0 1.6 16.1 0.00 0.00 0.00 68 1013.4
20260505061055 16 0 1.6 11.3 0.00 0.00 0.00 67 1013.4
20260505060553 16 199 1.6 11.3 0.00 0.00 0.00 67 1013.4
20260505060101 16 0 3.2 12.9 0.00 0.00 0.00 67 1013.3
20260505055553 16 190 1.6 12.9 0.00 0.00 0.00 66 1013.3
20260505055053 16 188 1.6 8.0 0.00 0.00 0.00 66 1013.4
20260505054601 16 0 1.6 11.3 0.00 0.00 0.00 66 1013.3
20260505054052 16 183 1.6 11.3 0.00 0.00 0.00 66 1013.3
20260505053552 16 264 3.2 11.3 0.00 0.00 0.00 66 1013.3
20260505053058 16 0 0.0 11.3 0.00 0.00 0.00 65 1013.4
20260505052552 16 186 3.2 11.3 0.00 0.00 0.00 65 1013.3
20260505052052 16 194 3.2 9.7 0.00 0.00 0.00 65 1013.3
20260505051558 16 202 3.2 11.3 0.00 0.00 0.00 64 1013.3
20260505051053 16 192 1.6 11.3 0.00 0.00 0.00 64 1013.4
20260505050553 16 184 0.0 11.3 0.00 0.00 0.00 64 1013.3
20260505041604 16 175 3.2 9.7 0.00 0.00 0.00 61 1013.0
20260505041053 16 174 3.2 11.3 0.00 0.00 0.00 60 1012.9
20260505040553 16 194 1.6 11.3 0.00 0.00 0.00 60 1013.0
20260505040104 16 207 1.6 11.3 0.00 0.00 0.00 60 1013.0
20260505035555 16 188 1.6 9.7 0.00 0.00 0.00 59 1013.0
20260505035052 16 202 1.6 9.7 0.00 0.00 0.00 59 1013.0
20260505034611 16 202 3.2 9.7 0.00 0.00 0.00 59 1012.9
20260505034052 16 188 1.6 8.0 0.00 0.00 0.00 59 1012.9
20260505033553 16 184 1.6 8.0 0.00 0.00 0.00 59 1012.9
20260505033109 16 203 1.6 4.8 0.00 0.00 0.00 59 1012.9
20260505032552 16 205 0.0 3.2 0.00 0.00 0.00 58 1012.9
20260505032052 16 205 0.0 3.2 0.00 0.00 0.00 58 1012.8
20260505031555 16 205 0.0 3.2 0.00 0.00 0.00 58 1012.8
20260505031051 16 205 0.0 3.2 0.00 0.00 0.00 57 1012.8
20260505030556 16 0 0.0 3.2 0.00 0.00 0.00 57 1012.8
20260505030127 16 0 0.0 1.6 0.00 0.00 0.00 57 1012.7
20260505025554 16 0 0.0 4.8 0.00 0.00 0.00 56 1012.8
20260505025053 16 0 0.0 4.8 0.00 0.00 0.00 56 1012.7
20260505024611 17 205 0.0 1.6 0.00 0.00 0.00 56 1012.8
20260505024052 17 0 0.0 3.2 0.00 0.00 0.00 55 1012.8
20260505023552 17 0 0.0 3.2 0.00 0.00 0.00 55 1012.7
20260505023058 17 0 0.0 4.8 0.00 0.00 0.00 54 1012.6
20260505022552 17 0 0.0 4.8 0.00 0.00 0.00 54 1012.6
20260505022052 17 0 0.0 4.8 0.00 0.00 0.00 54 1012.6
20260505021558 17 0 0.0 3.2 0.00 0.00 0.00 54 1012.5
20260505021052 17 0 0.0 1.6 0.00 0.00 0.00 54 1012.6
20260505020552 17 0 0.0 1.6 0.00 0.00 0.00 54 1012.5
20260505020108 17 0 0.0 3.2 0.00 0.00 0.00 53 1012.6